Overview Statistics Trail Chart Weather Telemetry Raw packets
 

This is the latest recevied weather packets stored in our database for station/object DL4MGC-10. If no packets are shown the sender has not sent any weather packets the latest 10 day(s).

<< 24 25 26 27 28 29 30 >>
Time Temp. Humidity Pressure Rain* Wind** Luminosity Snow
1788127902 20° C 91% 1015.5 hPa - - - -
1788127002 20° C 89% 1015.6 hPa - - - -
1788126102 20.56° C 88% 1015.5 hPa - - - -
1788125202 20° C 90% 1015.6 hPa - - - -
1788124301 20° C 90% 1015.6 hPa - - - -
1788123401 20.56° C 89% 1015.6 hPa - - - -
1788122501 21.11° C 87% 1015.7 hPa - - - -
1788121601 21.11° C 87% 1015.7 hPa - - - -
1788120701 21.67° C 84% 1015.7 hPa - - - -
1788119801 21.67° C 82% 1015.7 hPa - - - -
1788118901 22.22° C 81% 1015.8 hPa - - - -
1788118001 22.78° C 80% 1015.6 hPa - - - -
1788117101 23.33° C 76% 1015.8 hPa - - - -
1788116201 23.33° C 75% 1015.6 hPa - - - -
1788115300 23.89° C 73% 1015.6 hPa - - - -
1788114400 24.44° C 73% 1015.5 hPa - - - -
1788113500 25° C 71% 1015.4 hPa - - - -
1788112600 25.56° C 69% 1015.3 hPa - - - -
1788111700 25.56° C 67% 1015.1 hPa - - - -
1788110800 26.11° C 66% 1014.9 hPa - - - -
1788109900 26.67° C 65% 1014.9 hPa - - - -
1788109000 26.67° C 64% 1014.9 hPa - - - -
1788108099 26.67° C 62% 1014.9 hPa - - - -
1788107199 27.22° C 62% 1015 hPa - - - -
1788106299 27.22° C 61% 1015 hPa - - - -

* Rain since midnight (hover to see other rain measurements)
** Current wind speed in m/s (hover to see current wind gust speed)